TimeMST,TemperatureF,Dew PointF,Humidity,Sea Level PressureIn,VisibilityMPH,Wind Direction,Wind SpeedMPH,Gust SpeedMPH,PrecipitationIn,Events,Conditions,WindDirDegrees,DateUTC
12:57 AM,55.9,51.1,84,29.99,10.0,Calm,Calm,-,N/A,,Clear,0,2012-09-01 07:57:00
1:57 AM,55.9,52.0,87,29.97,10.0,Calm,Calm,-,N/A,,Clear,0,2012-09-01 08:57:00
2:57 AM,54.0,51.1,90,29.99,10.0,Calm,Calm,-,N/A,,Clear,0,2012-09-01 09:57:00
3:57 AM,54.0,51.1,90,30.01,10.0,Calm,Calm,-,N/A,,Clear,0,2012-09-01 10:57:00
4:57 AM,53.1,50.0,89,30.01,10.0,Calm,Calm,-,N/A,,Clear,0,2012-09-01 11:57:00
6:57 AM,55.0,52.0,89,30.05,10.0,Calm,Calm,-,N/A,,Clear,0,2012-09-01 13:57:00
7:57 AM,62.1,55.0,78,30.06,10.0,Calm,Calm,-,N/A,,Clear,0,2012-09-01 14:57:00
8:57 AM,64.9,55.0,70,30.07,10.0,Variable,3.5,-,N/A,,Clear,0,2012-09-01 15:57:00
9:57 AM,66.0,55.0,68,30.09,10.0,SSW,5.8,-,N/A,,Clear,210,2012-09-01 16:57:00
10:57 AM,66.9,55.0,66,30.08,10.0,WSW,5.8,-,N/A,,Scattered Clouds,240,2012-09-01 17:57:00
11:57 AM,66.9,55.0,66,30.07,10.0,SSW,8.1,-,0.00,,Mostly Cloudy,210,2012-09-01 18:57:00
12:57 PM,68.0,57.0,68,30.07,10.0,SSW,9.2,-,0.00,Rain,Light Rain,200,2012-09-01 19:57:00
1:57 PM,71.1,55.9,59,30.04,10.0,SW,11.5,-,0.00,,Partly Cloudy,230,2012-09-01 20:57:00
2:57 PM,70.0,55.0,59,30.04,10.0,SW,9.2,-,N/A,,Scattered Clouds,230,2012-09-01 21:57:00
3:57 PM,64.9,59.0,81,30.06,10.0,SSW,3.5,-,0.02,,Overcast,200,2012-09-01 22:57:00
4:57 PM,64.9,60.1,84,30.05,10.0,Calm,Calm,-,N/A,,Mostly Cloudy,0,2012-09-01 23:57:00
5:57 PM,66.9,55.9,68,30.03,10.0,Calm,Calm,-,N/A,,Partly Cloudy,0,2012-09-02 00:57:00
6:57 PM,63.0,57.9,84,30.05,10.0,Calm,Calm,-,N/A,,Clear,0,2012-09-02 01:57:00
7:57 PM,63.0,57.0,81,30.05,10.0,Calm,Calm,-,N/A,,Clear,0,2012-09-02 02:57:00
8:57 PM,61.0,57.0,87,30.05,10.0,Calm,Calm,-,N/A,,Clear,0,2012-09-02 03:57:00
9:57 PM,60.1,55.9,86,30.04,10.0,Calm,Calm,-,N/A,,Clear,0,2012-09-02 04:57:00
10:57 PM,60.1,55.0,83,30.04,10.0,Calm,Calm,-,N/A,,Clear,0,2012-09-02 05:57:00
11:57 PM,57.9,54.0,87,30.04,10.0,West,3.5,-,N/A,,Scattered Clouds,260,2012-09-02 06:57:00